Regional Weather Roundup
Issued by NWS

Home | Current Version | Previous Version | Graphics & Text | Print | Product List | Glossary On
Versions: 1 2 3 4 5 6 7 8 9 10 11 12 13 14 15 16 17 18 19 20 21 22 23 24 25 26 27 28 29 30 31 32 33 34 35 36 37 38 39 40 41 42 43 44 45 46 47 48 49 50
000
ASUS43 KMKX 211321
RWRWI

WISCONSIN REGIONAL WEATHER ROUNDUP
NATIONAL WEATHER SERVICE MILWAUKEE/SULLIVAN WI
800 AM CDT THU AUG 21 2014

NOTE: "FAIR" INDICATES FEW OR NO CLOUDS BELOW 12,000 FEET WITH NO
SIGNIFICANT WEATHER AND/OR OBSTRUCTIONS TO VISIBILITY.

WIZ001-002-006>008-014>016-023>028-211400-
NORTHWEST WISCONSIN

CITY           SKY/WX    TMP DP  RH WIND       PRES   REMARKS
SUPERIOR ARPT  CLOUDY    60  60 100 NE9       29.93R
ASHLAND        CLOUDY    61  60  97 E3        29.95R
HAYWARD        RAIN      62  61  96 CALM      29.92F FOG
SIREN          LGT RAIN  65  64  95 SE5       29.89S
RICE LAKE      CLOUDY    64  62  94 E7        29.89F
LADYSMITH      CLOUDY    64  62  94 SE8       29.95R
EAU CLAIRE     LGT RAIN  66  65  96 S5        29.88F FOG
MENOMONIE      TSTM      66  65  96 SE6       29.91R
NEW RICHMOND   HVY RAIN  66  66  99 SE6       29.89R
OSCEOLA        HVY RAIN  67  67 100 E6        29.90F
$$

WIZ003>005-009-010-017-018-211400-
NORTH CENTRAL WISCONSIN

CITY           SKY/WX    TMP DP  RH WIND       PRES   REMARKS
WOODRUFF       CLOUDY    63  61  92 SE5       29.99R FOG
RHINELANDER    CLOUDY    61  61 100 SE5       29.99R
EAGLE RIVER    CLOUDY    62  62  99 S6        30.00R
LAND O LAKES   CLOUDY    63  61  94 SE3       30.00S
PHILLIPS       CLOUDY    60  59  97 CALM      29.96S
TOMAHAWK       FOG       60  59  97 CALM      29.99R VSB 1
MEDFORD        CLOUDY    62  62  97 E6        29.95S FOG
MERRILL        CLOUDY    61  61 100 CALM      29.97R FOG
$$

WIZ029-030-035-036-043>047-211400-
CENTRAL WISCONSIN

CITY           SKY/WX    TMP DP  RH WIND       PRES   REMARKS
WAUSAU         CLOUDY    63  62  97 E5        29.95R FOG
MOSINEE          N/A     63  63 100 E5        29.97R FOG
MARSHFIELD     LGT RAIN  65  63  93 E9        29.92F FOG
STEVENS POINT  CLOUDY    63  62  95 SE6       29.96S FOG
WAUPACA        CLOUDY    66  64  94 CALM      29.95S FOG
WAUTOMA        CLOUDY    66  64  93 CALM      29.95R FOG
WISC RAPIDS    CLOUDY    65  63  93 E3        29.94R
CAMP DOUGLAS   CLOUDY    66  66 100 E8        29.91S FOG
$$

WIZ011>013-019>022-031-037>040-048>050-211400-
NORTHEAST WISCONSIN

CITY           SKY/WX    TMP DP  RH WIND       PRES   REMARKS
ANTIGO         FOG       62  62 100 SE6       29.99R VSB 1
STURGEON BAY   CLOUDY    64  63  94 E6        30.00R
GREEN BAY      PTSUNNY   66  63  90 CALM      29.97R
MANITOWOC      PTSUNNY   66  65  96 SE6       29.98R
APPLETON       MOSUNNY   66  63  88 SE7       29.96S
CLINTONVILLE   PTSUNNY   63  61  94 CALM      29.97R FOG
OSHKOSH        PTSUNNY   67  63  87 SE5       29.95R
$$

WIZ032>034-041-042-053>061-211400-
SOUTHWEST WISCONSIN

CITY           SKY/WX    TMP DP  RH WIND       PRES   REMARKS
LA CROSSE      RAIN      71  67  87 E5        29.86F
SPARTA         LGT RAIN  68  66  91 CALM      29.90F
VIROQUA        FAIR      67  67 100 SE5       29.91F
BOSCOBEL       LGT RAIN  70  67  90 CALM      29.88F
PRAIRIE DU CHI LGT RAIN  70  67  89 E8        29.86F
PLATTEVILLE    FAIR      69  67  92 SE13      29.92S
$$

WIZ056-057-062-063-064-067-068-211400-
SOUTH CENTRAL WISCONSIN

CITY           SKY/WX    TMP DP  RH WIND       PRES   REMARKS
BARABOO/DELLS  CLOUDY    66  64  93 E5        29.92S FOG
LONE ROCK      CLOUDY    73  68  84 SE5       29.92R
WATERTOWN      CLOUDY    68  67  96 SE5       29.95R
MADISON        LGT RAIN  70  66  87 S13       29.93S
MIDDLETON      FAIR      70  70  99 SE6       29.94R
MONROE         CLOUDY    68  66  94 S9        29.93S
JANESVILLE     SUNNY     70  68  94 S9        29.92
$$

WIZ051-052-058>065-066-070>072-211400-
SOUTHEAST WISCONSIN

CITY           SKY/WX    TMP DP  RH WIND       PRES   REMARKS
MILWAUKEE      PTSUNNY   70  65  84 CALM      29.97R
WAUKESHA       PTSUNNY   68  64  88 E5        29.97
MILWAUKEE/TIMM MOSUNNY   70  63  78 CALM      29.97R
RACINE         PTSUNNY   70  66  87 CALM      29.98R
BURLINGTON     PTSUNNY   67  67  99 SW8       29.97S
KENOSHA        CLOUDY    70  68  93 W10       29.98R
FOND DU LAC    PTSUNNY   68  62  81 SE7       29.95S
SHEBOYGAN      MOSUNNY   64  63  96 E3        29.97R
WEST BEND      CLOUDY    63  61  94 CALM      29.97S FOG
JUNEAU         PTSUNNY   67  41  38 SE7       29.96R
$$

LSZ147-162-211400-
LAKE SUPERIOR

STATION/POSITION TIME  TEMP    WIND        PRES    WAVE
                       AIR SEA DIR/SP/G            HT/PER
                 (UTC) (F)     (DEG/KT/KT) (MB)    (FT/S)
W MID LAKE BUOY  1250   58 57   70/  8/ 10 1014.0F   0
DEVILS ISLAND    1200   61      80/ 12/ 13 1013.7F
PORT WING        1200   62      70/  1/  4 1013.5R
SAXON HARBOR     1200   57      CALM  /  3 1013.9R
$$

LMZ867-665-643>646-211400-
LAKE MICHIGAN

STATION/POSITION TIME  TEMP    WIND        PRES    WAVE
                       AIR SEA DIR/SP/G            HT/PER
                 (UTC) (F)     (DEG/KT/KT) (MB)    (FT/S)
N MID LAKE BUOY  1250   64 63  130/  4/  4 1014.8R   0
NORTHPORT PIER   1200   64     150/  2/  3 1014.9R
SISTER BAY       1126   64     180/  6/  9   N/A
ALGOMA LAKESHORE 1208             CALM       N/A
KEWAUNEE LAKESHO 1300   66      80/  2/  3 1014.1R
SHEBOYGAN LAKESH 1300   66 66  150/  3/  4 1015.2R
ATWATER BUOY     1300   68     100/  2/  4 1016.0R
MILWAUKEE LAKESH 1300   70      80/  2/  3   N/A
S MID LAKE BUOY  1250   68 68   CALM  /  2 1014.2R   0
KENOSHA   LAKESH 1300   72     250/  6/ 11 1014.9R
$$

TC  - TEMPERATURE IN CELSIUS
VSB - VISIBILITY IN STATUTE MILES
WCI - WIND CHILL INDEX
HX  - HEAT INDEX




USA.gov is the U.S. government's official web portal to all federal, state and local government web resources and services.